This is the latest recevied weather packets stored in our database for station/object KJ4EBE. If no packets are shown the sender has not sent any weather packets the latest 10 day(s).
| Time | Temp. | Humidity | Pressure | Rain* | Wind** | Luminosity | Snow |
|---|---|---|---|---|---|---|---|
| 1777484353 | 17.22° C | 99% | 1013.5 hPa | 0 mm | - | 161 W/m² | - |
| 1777484048 | 17.22° C | 99% | 1013.7 hPa | 0 mm | - | 118 W/m² | - |
| 1777483745 | 17.22° C | 99% | 1013.6 hPa | 0 mm | - | 269 W/m² | - |
| 1777483441 | 17.22° C | 99% | 1013.6 hPa | 0 mm | - | 170 W/m² | - |
| 1777483136 | 17.22° C | 99% | 1013.8 hPa | 0 mm | - | 237 W/m² | - |
| 1777482834 | 17.78° C | 99% | 1013.8 hPa | 0 mm | - | 250 W/m² | - |
| 1777482529 | 17.78° C | 99% | 1013.8 hPa | 0 mm | - | 151 W/m² | - |
| 1777482227 | 17.78° C | 99% | 1014 hPa | 0 mm | - | 250 W/m² | - |
| 1777481924 | 17.78° C | 99% | 1014.6 hPa | 0 mm | - | 213 W/m² | - |
| 1777481622 | 17.78° C | 99% | 1014.7 hPa | 0 mm | - | 159 W/m² | - |
| 1777481319 | 17.78° C | 99% | 1014.5 hPa | 0 mm | - | 66 W/m² | - |
| 1777481015 | 17.78° C | 99% | 1014.4 hPa | 0.51 mm | - | 79 W/m² | - |
| 1777480712 | 18.89° C | 99% | 1014.1 hPa | 0.51 mm | - | 143 W/m² | - |
| 1777480408 | 18.89° C | 99% | 1013.8 hPa | 0 mm | - | 99 W/m² | - |
| 1777480104 | 18.89° C | 99% | 1014 hPa | 0 mm | - | 85 W/m² | - |
| 1777479801 | 18.89° C | 99% | 1014 hPa | 0 mm | - | 86 W/m² | - |
| 1777479498 | 18.89° C | 99% | 1014.2 hPa | 0 mm | - | 58 W/m² | - |
| 1777479195 | 18.89° C | 99% | 1014.5 hPa | 0 mm | - | 35 W/m² | - |
| 1777478892 | 18.89° C | 99% | 1014.2 hPa | 0.51 mm | - | 54 W/m² | - |
| 1777478589 | 18.89° C | 99% | 1013.9 hPa | 0.51 mm | - | 46 W/m² | - |
| 1777478285 | 19.44° C | 99% | 1013.9 hPa | 0 mm | - | 47 W/m² | - |
| 1777477982 | 19.44° C | 99% | 1013.7 hPa | 0.51 mm | - | 83 W/m² | - |
| 1777477677 | 20° C | 99% | 1013.6 hPa | 1.78 mm | - | 62 W/m² | - |
| 1777477374 | 20° C | 99% | 1013.9 hPa | 1.78 mm | - | 54 W/m² | - |
| 1777477071 | 20° C | 99% | 1013.8 hPa | 0.51 mm | - | 53 W/m² | - |
* Rain latest hour (hover to see other rain measurements)
** Current wind speed in m/s (hover to see current wind gust speed)